2015-11-06 00:00:58 r, 20.02m,0000000001Hz,0000553193c,0000001.201s, 013.2C,00002191
2015-11-06 00:10:58 r, 19.88m,0000000001Hz,0000483859c,0000001.050s, 013.2C,00002191
2015-11-06 00:20:58 r, 19.54m,0000000002Hz,0000356100c,0000000.773s, 013.2C,00002191
2015-11-06 00:30:59 r, 19.66m,0000000001Hz,0000399220c,0000000.866s, 013.5C,00002191
2015-11-06 00:40:58 r, 19.81m,0000000001Hz,0000458038c,0000000.994s, 013.5C,00002191
2015-11-06 00:50:58 r, 20.04m,0000000001Hz,0000568206c,0000001.233s, 013.8C,00002191
2015-11-06 01:00:58 r, 20.18m,0000000001Hz,0000643016c,0000001.395s, 013.5C,00002191
2015-11-06 01:10:58 r, 20.34m,0000000001Hz,0000739138c,0000001.604s, 013.5C,00002191
2015-11-06 01:20:58 r, 20.26m,0000000001Hz,0000692155c,0000001.502s, 013.2C,00002191
2015-11-06 01:30:58 r, 20.35m,0000000001Hz,0000741959c,0000001.610s, 012.8C,00002191
2015-11-06 01:40:58 r, 20.46m,0000000000Hz,0000819931c,0000001.779s, 012.8C,00002191
2015-11-06 01:50:59 r, 20.45m,0000000001Hz,0000812745c,0000001.764s, 012.8C,00002191
2015-11-06 02:00:58 r, 20.59m,0000000000Hz,0000925737c,0000002.009s, 012.8C,00002191
2015-11-06 02:10:58 r, 20.76m,0000000001Hz,0001086566c,0000002.358s, 012.5C,00002191
2015-11-06 02:20:58 r, 20.80m,0000000001Hz,0001130199c,0000002.453s, 012.5C,00002191
2015-11-06 02:30:58 r, 20.85m,0000000001Hz,0001186551c,0000002.575s, 012.2C,00002191
2015-11-06 02:40:58 r, 20.89m,0000000001Hz,0001213446c,0000002.633s, 012.2C,00002191
2015-11-06 02:50:58 r, 20.66m,0000000000Hz,0000990669c,0000002.150s, 012.2C,00002191
2015-11-06 03:00:58 r, 20.69m,0000000000Hz,0001015997c,0000002.205s, 012.5C,00002191
2015-11-06 03:10:58 r, 20.34m,0000000001Hz,0000738219c,0000001.602s, 012.8C,00002191
2015-11-06 03:20:58 r, 20.13m,0000000001Hz,0000614328c,0000001.333s, 013.2C,00002191
2015-11-06 03:30:58 r, 20.00m,0000000001Hz,0000544188c,0000001.181s, 013.5C,00002191
2015-11-06 03:40:58 r, 20.00m,0000000001Hz,0000544159c,0000001.181s, 013.8C,00002191
2015-11-06 03:51:00 r, 20.02m,0000000001Hz,0000555818c,0000001.206s, 013.8C,00002191
2015-11-06 04:00:58 r, 19.96m,0000000001Hz,0000527163c,0000001.144s, 014.1C,00002191
2015-11-06 04:10:58 r, 19.95m,0000000001Hz,0000516521c,0000001.121s, 014.1C,00002191
2015-11-06 04:20:58 r, 19.86m,0000000001Hz,0000475883c,0000001.033s, 014.1C,00002191
2015-11-06 04:30:58 r, 19.83m,0000000001Hz,0000463614c,0000001.006s, 014.1C,00002191
2015-11-06 04:40:59 r, 19.84m,0000000001Hz,0000469350c,0000001.019s, 014.1C,00002191
2015-11-06 04:51:00 r, 19.88m,0000000001Hz,0000486723c,0000001.056s, 014.5C,00002191
2015-11-06 05:00:58 r, 19.69m,0000000001Hz,0000408254c,0000000.886s, 014.5C,00002191
2015-11-06 05:10:58 r, 19.96m,0000000001Hz,0000523256c,0000001.136s, 014.5C,00002191
2015-11-06 05:20:58 r, 19.86m,0000000001Hz,0000477070c,0000001.035s, 014.5C,00002191
2015-11-06 05:30:58 r, 19.85m,0000000001Hz,0000471437c,0000001.023s, 014.1C,00002191
2015-11-06 05:40:58 r, 19.59m,0000000001Hz,0000371488c,0000000.806s, 014.1C,00002191
2015-11-06 05:50:58 r, 19.53m,0000000002Hz,0000354217c,0000000.769s, 014.1C,00002191
2015-11-06 06:00:58 r, 19.41m,0000000002Hz,0000315928c,0000000.686s, 014.1C,00002191
2015-11-06 06:10:58 r, 18.93m,0000000003Hz,0000204698c,0000000.444s, 014.1C,00002191
2015-11-06 06:20:58 r, 18.46m,0000000004Hz,0000132519c,0000000.288s, 014.1C,00002191
2015-11-06 06:30:58 r, 16.98m,0000000013Hz,0000033846c,0000000.073s, 013.8C,00002191
2015-11-06 06:40:58 r, 14.99m,0000000083Hz,0000005448c,0000000.012s, 013.5C,00002191
2015-11-06 06:50:58 r, 12.94m,0000000564Hz,0000000000c,0000000.000s, 013.2C,00002191
2015-11-06 07:00:58 r, 10.97m,0000003445Hz,0000000000c,0000000.000s, 012.8C,00002191
2015-11-06 07:10:58 r, 09.50m,0000013345Hz,0000000000c,0000000.000s, 012.8C,00002191
2015-11-06 07:20:58 r, 08.31m,0000040007Hz,0000000000c,0000000.000s, 013.2C,00002191
2015-11-06 07:30:58 r, 07.41m,0000091799Hz,0000000000c,0000000.000s, 013.2C,00002191
2015-11-06 07:40:58 r, 07.44m,0000089434Hz,0000000000c,0000000.000s, 013.2C,00002191
2015-11-06 07:50:58 r, 06.79m,0000162865Hz,0000000000c,0000000.000s, 013.5C,00002191
2015-11-06 08:00:59 r, 00.00m,0000421046Hz,0000000000c,0000000.000s, 013.5C,00002191
2015-11-06 08:10:58 r, 00.00m,0000597248Hz,0000000000c,0000000.000s, 013.8C,00002191
2015-11-06 08:20:58 r, 00.00m,0000597160Hz,0000000000c,0000000.000s, 013.8C,00002191
2015-11-06 08:30:58 r, 00.00m,0000597250Hz,0000000000c,0000000.000s, 014.1C,00002191
2015-11-06 08:40:58 r, 00.00m,0000597146Hz,0000000000c,0000000.000s, 014.5C,00002191
2015-11-06 08:50:58 r, 00.00m,0000597114Hz,0000000000c,0000000.000s, 014.5C,00002191
2015-11-06 09:00:59 r, 00.00m,0000596992Hz,0000000000c,0000000.000s, 014.8C,00002191
2015-11-06 09:10:58 r, 00.00m,0000596918Hz,0000000000c,0000000.000s, 015.1C,00002191
2015-11-06 09:20:59 r, 00.00m,0000596914Hz,0000000000c,0000000.000s, 015.4C,00002191
2015-11-06 09:30:58 r, 00.00m,0000596971Hz,0000000000c,0000000.000s, 015.7C,00002191
2015-11-06 09:40:58 r, 00.00m,0000596946Hz,0000000000c,0000000.000s, 015.4C,00002191
2015-11-06 09:50:58 r, 00.00m,0000596903Hz,0000000000c,0000000.000s, 015.4C,00002191
2015-11-06 10:00:59 r, 00.00m,0000596892Hz,0000000000c,0000000.000s, 015.7C,00002191
2015-11-06 10:10:58 r, 00.00m,0000596914Hz,0000000000c,0000000.000s, 015.7C,00002191
2015-11-06 10:20:58 r, 00.00m,0000596987Hz,0000000000c,0000000.000s, 016.1C,00002191
2015-11-06 10:31:00 r, 00.00m,0000596891Hz,0000000000c,0000000.000s, 016.4C,00002191
2015-11-06 10:40:58 r, 00.00m,0000596880Hz,0000000000c,0000000.000s, 016.4C,00002191
2015-11-06 10:50:58 r, 00.00m,0000596793Hz,0000000000c,0000000.000s, 016.7C,00002191
2015-11-06 11:00:58 r, 00.00m,0000596751Hz,0000000000c,0000000.000s, 016.7C,00002191
2015-11-06 11:10:58 r, 00.00m,0000596752Hz,0000000000c,0000000.000s, 016.4C,00002191
2015-11-06 11:20:58 r, 00.00m,0000596894Hz,0000000000c,0000000.000s, 016.4C,00002191
2015-11-06 11:30:59 r, 00.00m,0000596905Hz,0000000000c,0000000.000s, 016.1C,00002191
2015-11-06 11:40:58 r, 00.00m,0000596934Hz,0000000000c,0000000.000s, 016.1C,00002191
2015-11-06 11:50:58 r, 00.00m,0000596848Hz,0000000000c,0000000.000s, 016.1C,00002191
2015-11-06 12:00:59 r, 00.00m,0000596834Hz,0000000000c,0000000.000s, 016.1C,00002191
2015-11-06 12:10:58 r, 00.00m,0000596909Hz,0000000000c,0000000.000s, 016.1C,00002191
2015-11-06 12:20:58 r, 00.00m,0000596950Hz,0000000000c,0000000.000s, 016.1C,00002191
2015-11-06 12:30:59 r, 00.00m,0000596890Hz,0000000000c,0000000.000s, 016.1C,00002191
2015-11-06 12:40:58 r, 00.00m,0000596895Hz,0000000000c,0000000.000s, 016.4C,00002191
2015-11-06 12:50:59 r, 00.00m,0000596960Hz,0000000000c,0000000.000s, 016.4C,00002191
2015-11-06 13:00:59 r, 00.00m,0000596838Hz,0000000000c,0000000.000s, 016.7C,00002191
2015-11-06 13:10:58 r, 00.00m,0000596834Hz,0000000000c,0000000.000s, 016.7C,00002191
2015-11-06 13:20:58 r, 00.00m,0000596726Hz,0000000000c,0000000.000s, 017.0C,00002191
2015-11-06 13:30:58 r, 00.00m,0000596742Hz,0000000000c,0000000.000s, 017.4C,00002191
2015-11-06 13:40:58 r, 00.00m,0000596747Hz,0000000000c,0000000.000s, 017.0C,00002191
2015-11-06 13:50:58 r, 00.00m,0000596756Hz,0000000000c,0000000.000s, 017.0C,00002191
2015-11-06 14:00:58 r, 00.00m,0000596762Hz,0000000000c,0000000.000s, 017.0C,00002191
2015-11-06 14:10:58 r, 00.00m,0000596843Hz,0000000000c,0000000.000s, 016.4C,00002191
2015-11-06 14:20:58 r, 00.00m,0000596861Hz,0000000000c,0000000.000s, 016.4C,00002191
2015-11-06 14:30:58 r, 00.00m,0000596750Hz,0000000000c,0000000.000s, 016.4C,00002191
2015-11-06 14:40:58 r, 00.00m,0000596847Hz,0000000000c,0000000.000s, 016.4C,00002191
2015-11-06 14:50:58 r, 00.00m,0000596710Hz,0000000000c,0000000.000s, 016.4C,00002191
2015-11-06 15:00:59 r, 00.00m,0000596889Hz,0000000000c,0000000.000s, 016.4C,00002191
2015-11-06 15:10:58 r, 00.00m,0000596837Hz,0000000000c,0000000.000s, 016.1C,00002191
2015-11-06 15:20:58 r, 00.00m,0000596863Hz,0000000000c,0000000.000s, 015.7C,00002191
2015-11-06 15:31:01 r, 00.00m,0000596840Hz,0000000000c,0000000.000s, 015.7C,00002191
2015-11-06 15:40:58 r, 00.00m,0000596869Hz,0000000000c,0000000.000s, 015.7C,00002191
2015-11-06 15:50:58 r, 00.00m,0000596926Hz,0000000000c,0000000.000s, 015.7C,00002191
2015-11-06 16:00:58 r, 00.00m,0000596963Hz,0000000000c,0000000.000s, 015.4C,00002191
2015-11-06 16:10:58 r, 00.00m,0000417310Hz,0000000000c,0000000.000s, 015.4C,00002191
2015-11-06 16:20:58 r, 00.00m,0000587596Hz,0000000000c,0000000.000s, 015.4C,00002191
2015-11-06 16:30:58 r, 00.00m,0000450201Hz,0000000000c,0000000.000s, 015.4C,00002191
2015-11-06 16:40:58 r, 06.35m,0000243071Hz,0000000000c,0000000.000s, 015.1C,00002191
2015-11-06 16:50:58 r, 07.05m,0000128152Hz,0000000000c,0000000.000s, 015.1C,00002191
2015-11-06 17:00:59 r, 08.49m,0000034267Hz,0000000000c,0000000.000s, 014.8C,00002191
2015-11-06 17:10:58 r, 09.82m,0000009989Hz,0000000000c,0000000.000s, 014.8C,00002191
2015-11-06 17:20:58 r, 11.78m,0000001646Hz,0000000000c,0000000.000s, 014.5C,00002191
2015-11-06 17:30:59 r, 13.93m,0000000227Hz,0000000000c,0000000.000s, 014.8C,00002191
2015-11-06 17:40:58 r, 15.86m,0000000038Hz,0000012159c,0000000.026s, 014.5C,00002191
2015-11-06 17:50:58 r, 17.63m,0000000007Hz,0000061527c,0000000.134s, 014.5C,00002191
2015-11-06 18:00:58 r, 18.85m,0000000003Hz,0000189827c,0000000.412s, 014.5C,00002191
2015-11-06 18:10:58 r, 19.47m,0000000002Hz,0000334967c,0000000.727s, 014.5C,00002191
2015-11-06 18:20:58 r, 19.65m,0000000001Hz,0000394391c,0000000.856s, 014.5C,00002191
2015-11-06 18:30:58 r, 19.73m,0000000001Hz,0000422269c,0000000.916s, 014.5C,00002191
2015-11-06 18:40:58 r, 19.70m,0000000001Hz,0000411688c,0000000.893s, 014.5C,00002191
2015-11-06 18:50:58 r, 19.70m,0000000002Hz,0000412765c,0000000.896s, 014.5C,00002191
2015-11-06 19:01:00 r, 19.77m,0000000001Hz,0000439062c,0000000.953s, 014.5C,00002191
2015-11-06 19:10:58 r, 19.81m,0000000001Hz,0000454721c,0000000.987s, 014.5C,00002191
2015-11-06 19:20:58 r, 19.78m,0000000001Hz,0000445510c,0000000.967s, 014.5C,00002191
2015-11-06 19:30:58 r, 19.79m,0000000001Hz,0000447276c,0000000.971s, 014.1C,00002191
2015-11-06 19:40:58 r, 19.76m,0000000001Hz,0000436756c,0000000.948s, 014.1C,00002191
2015-11-06 19:50:58 r, 19.70m,0000000001Hz,0000412702c,0000000.896s, 014.1C,00002191
2015-11-06 20:00:58 r, 19.54m,0000000001Hz,0000357045c,0000000.775s, 014.1C,00002191
2015-11-06 20:10:58 r, 19.70m,0000000001Hz,0000413730c,0000000.898s, 014.1C,00002191
2015-11-06 20:20:58 r, 19.65m,0000000001Hz,0000393822c,0000000.855s, 014.1C,00002191
2015-11-06 20:30:58 r, 19.58m,0000000001Hz,0000367630c,0000000.798s, 014.1C,00002191
2015-11-06 20:40:58 r, 19.70m,0000000001Hz,0000411765c,0000000.894s, 014.1C,00002191
2015-11-06 20:50:58 r, 19.78m,0000000001Hz,0000444343c,0000000.964s, 014.1C,00002191
2015-11-06 21:00:58 r, 19.78m,0000000001Hz,0000445330c,0000000.966s, 014.1C,00002191
2015-11-06 21:10:58 r, 19.76m,0000000001Hz,0000434584c,0000000.943s, 014.1C,00002191
2015-11-06 21:20:58 r, 19.82m,0000000001Hz,0000461737c,0000001.002s, 014.1C,00002191
2015-11-06 21:30:58 r, 19.96m,0000000001Hz,0000525171c,0000001.140s, 014.1C,00002191
2015-11-06 21:40:58 r, 19.92m,0000000001Hz,0000503965c,0000001.094s, 013.8C,00002191
2015-11-06 21:50:58 r, 19.86m,0000000001Hz,0000478090c,0000001.038s, 013.8C,00002191
2015-11-06 22:00:58 r, 19.79m,0000000001Hz,0000449991c,0000000.977s, 013.8C,00002191
2015-11-06 22:10:58 r, 19.85m,0000000001Hz,0000472414c,0000001.025s, 013.8C,00002191
2015-11-06 22:20:58 r, 19.63m,0000000002Hz,0000388790c,0000000.844s, 013.8C,00002191
2015-11-06 22:30:58 r, 19.72m,0000000001Hz,0000419390c,0000000.910s, 013.8C,00002191
2015-11-06 22:40:58 r, 19.61m,0000000001Hz,0000380173c,0000000.825s, 013.5C,00002191
2015-11-06 22:50:58 r, 19.71m,0000000001Hz,0000417442c,0000000.906s, 013.5C,00002191
2015-11-06 23:00:58 r, 19.65m,0000000001Hz,0000391599c,0000000.850s, 013.5C,00002191
2015-11-06 23:10:58 r, 19.44m,0000000001Hz,0000323752c,0000000.703s, 013.5C,00002191
2015-11-06 23:20:58 r, 19.26m,0000000001Hz,0000274539c,0000000.596s, 013.5C,00002191
2015-11-06 23:30:58 r, 19.35m,0000000002Hz,0000299451c,0000000.650s, 013.5C,00002191
2015-11-06 23:40:59 r, 19.30m,0000000002Hz,0000285980c,0000000.621s, 013.5C,00002191
2015-11-06 23:50:58 r, 19.22m,0000000001Hz,0000264211c,0000000.573s, 013.5C,00002191
